Tracking 30685 objects as of 17-Jun-2025
HD Live streaming from Space Station
objects crossing your sky now

NOAA 16 DEB

Track NOAA 16 DEB now!
10-day predictions


NORAD ID: 41539
Int'l Code: 2000-055NP
Perigee: 735.8 km
Apogee: 768.5 km
Inclination: 98.8 °
Period: 99.7 minutes
Semi major axis: 7123 km
RCS: Unknown
Launch date: September 21, 2000
Source: United States (US)
Launch site: AIR FORCE WESTERN TEST RANGE (AFWTR)

Note: This is SATELLITE DEBRIS
Your satellite tracking list
Your tracking list is empty




NASA's NSSDC Master Catalog

Two Line Element Set (TLE):
1 41539U 00055NP  25167.55466949  .00006199  00000-0  18165-2 0  9999
2 41539  98.8104 290.2391 0022908 118.2588 242.0917 14.44094218485632
Source of the keplerian elements: AFSPC